Weather History for KHRL - July, 2013

Change the Weather History Date:

Friday, July 26, 2013

  Actual Average Record
Temperature  
Mean Temperature 90 °F 85 °F  
Max Temperature 101 °F 96 °F 102 °F (1943)
Min Temperature 78 °F 75 °F 68 °F (1933)
Degree Days  
Heating Degree Days 0 0  
Month to date heating degree days 0 0  
Since 1 June heating degree days 0 0  
Since 1 July heating degree days 0 0  
Cooling Degree Days 25 20  
Month to date cooling degree days 522 520  
Year to date cooling degree days 2252 2189  
Since 1 June cooling degree days 1157 1088  
Growing Degree Days 38 (Base 50)    
Moisture  
Dew Point 73 °F    
Average Humidity 63    
Maximum Humidity 91    
Minimum Humidity 35    
Precipitation  
Precipitation 0.00 in 0.04 in 0.50 in (1919)
Month to date precipitation 1.62 1.70  
Year to date precipitation 9.59 12.12  
Sea Level Pressure  
Sea Level Pressure 29.96 in    
Wind  
Wind Speed 16 mph (SSE)    
Max Wind Speed 29 mph    
Max Gust Speed 35 mph    
Visibility 10 miles    
Events      
T = Trace of Precipitation, MM = Missing Value Source: NWS Daily Summary

Daily Weather History Graph

Daily Weather History Graph

Search for Another Location

Airport or City:

Trip Planner

Search our weather history database for the weather conditions in past years. The results will help you decide how hot, cold, wet, or windy it might be!

Date:

Astronomy

Jul. 26, 2013 Rise Set
Actual Time 6:53 AM CDT 8:20 PM CDT
Civil Twilight 6:28 AM CDT 8:45 PM CDT
Nautical Twilight 5:58 AM CDT 9:15 PM CDT
Astronomical Twilight 5:26 AM CDT 9:46 PM CDT
Moon 11:11 PM CDT (7/26) 10:58 AM CDT (7/26)
Length of Visible Light 14h 17m
Length of Day
13h 27m
Waning Gibbous, 80% of the Moon is Illuminated
Jul 26
Waning Gibbous
Jul 29
Last Quarter
Aug 6
New
Aug 14
First Quarter
Aug 20
Full

Hourly Weather History & Observations

Time (CDT) Temp. Heat Index Dew Point Humidity Pressure Visibility Wind Dir Wind Speed Gust Speed Precip Events Conditions
12:52 AM 80.1 °F 85.1 °F 75.0 °F 85% 30.03 in 10.0 mi SSE 9.2 mph - N/A   Partly Cloudy
1:52 AM 81.0 °F 86.7 °F 75.0 °F 82% 30.02 in 10.0 mi SSE 11.5 mph - N/A   Partly Cloudy
2:52 AM 81.0 °F 86.7 °F 75.0 °F 82% 29.99 in 10.0 mi SSE 12.7 mph - N/A   Partly Cloudy
3:52 AM 80.1 °F 85.1 °F 75.0 °F 85% 29.99 in 10.0 mi SSE 10.4 mph - N/A   Clear
4:52 AM 79.0 °F - 75.0 °F 88% 29.98 in 10.0 mi SSE 9.2 mph - N/A   Clear
5:52 AM 78.1 °F - 75.0 °F 90% 29.99 in 10.0 mi SSE 6.9 mph - N/A   Clear
6:52 AM 78.1 °F - 75.9 °F 93% 29.99 in 9.0 mi SSE 8.1 mph - N/A   Clear
7:52 AM 80.1 °F 85.8 °F 77.0 °F 90% 29.99 in 10.0 mi South 10.4 mph - N/A   Clear
8:52 AM 84.0 °F 93.7 °F 77.0 °F 79% 30.00 in 10.0 mi South 16.1 mph - N/A   Mostly Cloudy
9:52 AM 89.1 °F 100.2 °F 75.9 °F 65% 30.00 in 10.0 mi South 16.1 mph - N/A   Scattered Clouds
10:52 AM 93.0 °F 101.9 °F 73.0 °F 52% 30.00 in 10.0 mi South 18.4 mph 24.2 mph N/A   Partly Cloudy
11:52 AM 96.1 °F 104.9 °F 72.0 °F 46% 29.99 in 10.0 mi South 20.7 mph 28.8 mph N/A   Clear
12:52 PM 97.0 °F 102.8 °F 69.1 °F 40% 29.97 in 10.0 mi SSE 18.4 mph 25.3 mph N/A   Clear
1:52 PM 99.0 °F 104.2 °F 68.0 °F 36% 29.96 in 10.0 mi SSE 18.4 mph 27.6 mph N/A   Clear
2:52 PM 99.0 °F 105.5 °F 69.1 °F 38% 29.94 in 10.0 mi SSE 19.6 mph 28.8 mph N/A   Clear
3:52 PM 98.1 °F 102.4 °F 66.9 °F 36% 29.93 in 10.0 mi South 17.3 mph 25.3 mph N/A   Clear
4:52 PM 97.0 °F 102.8 °F 69.1 °F 40% 29.92 in 10.0 mi SSE 19.6 mph 27.6 mph N/A   Clear
5:52 PM 93.0 °F 97.9 °F 69.1 °F 45% 29.91 in 10.0 mi SSE 23.0 mph 29.9 mph N/A   Clear
6:52 PM 90.0 °F 96.4 °F 71.1 °F 54% 29.91 in 10.0 mi SSE 19.6 mph 28.8 mph N/A   Clear
7:52 PM 87.1 °F 92.8 °F 71.1 °F 59% 29.90 in 10.0 mi SSE 24.2 mph 34.5 mph N/A   Clear
8:52 PM 84.0 °F 89.6 °F 72.0 °F 67% 29.91 in 10.0 mi SSE 20.7 mph 26.5 mph N/A   Clear
9:52 PM 82.9 °F 88.8 °F 73.0 °F 72% 29.93 in 10.0 mi SSE 16.1 mph - N/A   Clear
10:52 PM 82.0 °F 87.9 °F 73.9 °F 76% 29.95 in 10.0 mi South 18.4 mph 25.3 mph N/A   Clear
11:52 PM 81.0 °F 86.2 °F 73.9 °F 79% 29.96 in 10.0 mi South 17.3 mph - N/A   Clear